Regional Weather Roundup
Issued by NWS

Home | Current Version | Previous Version | Graphics & Text | Print | Product List | Glossary On
Versions: 1 2 3 4 5 6 7 8 9 10 11 12 13 14 15 16 17 18 19 20 21 22 23 24 25 26 27 28 29 30 31 32 33 34 35 36 37 38 39 40 41 42 43 44 45 46 47 48 49 50
000
ASUS45 KCYS 022010
RWRWY

WYOMING REGIONAL WEATHER ROUNDUP
NATIONAL WEATHER SERVICE CHEYENNE WY
100 PM MST MON MAR 02 2015

NOTE:  "FAIR" INDICATES FEW OR NO CLOUDS BELOW 12,000 FEET
WITH NO SIGNIFICANT WEATHER AND/OR OBSTRUCTIONS TO VISIBILITY.

WYZ001-022100-
YELLOWSTONE NATIONAL PARK

CITY           SKY/WX    TMP DP  RH WIND       PRES   REMARKS
LK YELLOWSTONE   N/A     24  11  57 E6        29.72F WCI  17
W YELLOWSTONE  NOT AVBL

$$
WYZ002>013-054>058-071-098>099-022100-
NORTHERN WYOMING

CITY           SKY/WX    TMP DP  RH WIND       PRES   REMARKS
JACKSON        CLOUDY    21  12  68 CALM      29.75F
CODY           FAIR      37  19  48 NE12      29.72F WCI  30
GREYBULL       FAIR      38  14  37 S6        29.76F WCI  33
WORLAND        FAIR      36  17  46 N5        29.74F WCI  32
SHERIDAN       FAIR      37  16  42 S5        29.75F WCI  33
BUFFALO        FAIR      38   4  24 SE3       29.74F
GILLETTE       FAIR      42  13  30 CALM      29.75F
HULETT         FAIR      39  25  56 SW10      29.77F WCI  32
NEWCASTLE      FAIR      37  19  48 SE5       29.78F WCI  34

$$
WYZ014>020-022>026-101>103-022100-
CENTRAL WYOMING

CITY           SKY/WX    TMP DP  RH WIND       PRES   REMARKS
BIG PINEY      CLOUDY    30  15  53 CALM      29.73F
PINEDALE       CLOUDY    28  14  54 NW9       29.72F WCI  20
DUBOIS         MOCLDY    34  12  40 SE6       29.65F WCI  29
LANDER         FAIR      23  13  65 CALM      29.72F
RIVERTON       FAIR      22  11  62 E3        29.75F
CASPER         CLOUDY    38  31  76 S15       29.72F WCI  29
DOUGLAS        CLOUDY    37  24  59 SE12      29.75F WCI  29

$$
WYZ021-027>030-104>119-022100-
SOUTHERN WYOMING

CITY           SKY/WX    TMP DP  RH WIND       PRES   REMARKS
EVANSTON       PTSUNNY   29  24  82 E8        29.68F WCI  21
KEMMERER       LGT SNOW  32  27  80 E6        29.69F WCI  26
FORT BRIDGER   LGT SNOW  28  26  94 NE5       29.74F WCI  23
ROCK SPRINGS   LGT SNOW  31  29  92 NE5       29.68F FOG     WCI  26
DIXON          MOCLDY    43  34  70 S14G25    29.71F
RAWLINS        LGT SNOW  31  27  85 CALM      29.70F FOG
SARATOGA       DRIZZLE   36  34  93 SE9       29.71F WCI  29
LARAMIE        FAIR      39  31  72 SW16      29.70F WCI  30
CHEYENNE       FAIR      34  23  64 VRB6      29.75F WCI  29
TORRINGTON     FAIR      43  23  45 SE10      29.78F
PINE BLUFFS    FAIR      37  25  60 S12       29.78F WCI  30

$$


USA.gov is the U.S. government's official web portal to all federal, state and local government web resources and services.